This is the latest recevied weather packets stored in our database for station/object KI8L. If no packets are shown the sender has not sent any weather packets the latest 10 day(s).
| Time | Temp. | Humidity | Pressure | Rain* | Wind** | Luminosity | Snow |
|---|---|---|---|---|---|---|---|
| 1777666758 | 5° C | 99% | 1015.5 hPa | 0 mm | - | 83 W/m² | - |
| 1777665546 | 5.56° C | 99% | 1015.4 hPa | 0 mm | - | 115 W/m² | - |
| 1777664938 | 5.56° C | 99% | 1015.4 hPa | 1.78 mm | - | 87 W/m² | - |
| 1777663423 | 5° C | 99% | 1015 hPa | 1.27 mm | - | 113 W/m² | - |
| 1777661905 | 5.56° C | 99% | 1014.9 hPa | 0 mm | - | 93 W/m² | - |
| 1777660689 | 5.56° C | 99% | 1014.6 hPa | 1.27 mm | - | 74 W/m² | - |
| 1777660387 | 5.56° C | 99% | 1014.6 hPa | 0 mm | - | 136 W/m² | - |
| 1777660083 | 5° C | 99% | 1014.8 hPa | 0 mm | - | 142 W/m² | - |
| 1777659476 | 5° C | 99% | 1014.5 hPa | 1.78 mm | - | 83 W/m² | - |
| 1777659174 | 5° C | 99% | 1014.4 hPa | 0 mm | - | 59 W/m² | - |
| 1777658871 | 5.56° C | 99% | 1014.3 hPa | 0 mm | - | 79 W/m² | - |
| 1777657053 | 5.56° C | 99% | 1014.2 hPa | 1.27 mm | - | 59 W/m² | - |
| 1777656750 | 6.11° C | 99% | 1014.3 hPa | 0 mm | - | 42 W/m² | - |
| 1777656446 | 6.11° C | 99% | 1014.1 hPa | 3.05 mm | - | 64 W/m² | - |
| 1777656140 | 6.11° C | 99% | 1014 hPa | 4.83 mm | - | 52 W/m² | - |
| 1777655837 | 6.11° C | 99% | 1013.8 hPa | 4.83 mm | - | 54 W/m² | - |
| 1777655534 | 6.67° C | 99% | 1014 hPa | 3.05 mm | - | 27 W/m² | - |
| 1777654928 | 7.22° C | 99% | 1013.7 hPa | 0 mm | - | 61 W/m² | - |
| 1777653717 | 6.67° C | 98% | 1013.8 hPa | 1.27 mm | - | 117 W/m² | - |
| 1777653413 | 6.67° C | 98% | 1014.2 hPa | 1.78 mm | - | 114 W/m² | - |
| 1777653110 | 6.67° C | 98% | 1014.1 hPa | 1.78 mm | - | 86 W/m² | - |
| 1777652806 | 6.67° C | 99% | 1014 hPa | 0 mm | - | 72 W/m² | - |
| 1777652503 | 6.67° C | 98% | 1014.2 hPa | 1.27 mm | - | 67 W/m² | - |
| 1777651897 | 6.67° C | 96% | 1013.8 hPa | 0 mm | - | 71 W/m² | - |
| 1777651594 | 6.67° C | 98% | 1014 hPa | 0 mm | - | 74 W/m² | - |
* Rain latest hour (hover to see other rain measurements)
** Current wind speed in m/s (hover to see current wind gust speed)